Regional Weather Roundup
Issued by NWS

Home | Current Version | Previous Version | Graphics & Text | Print | Product List | Glossary On
Versions: 1 2 3 4 5 6 7 8 9 10 11 12 13 14 15 16 17 18 19 20 21 22 23 24 25 26 27 28 29 30 31 32 33 34 35 36 37 38 39 40 41 42 43 44 45 46 47 48 49 50
000
ASUS45 KCYS 180610
RWRWY

WYOMING REGIONAL WEATHER ROUNDUP
NATIONAL WEATHER SERVICE CHEYENNE WY
1200 AM MDT THU SEP 18 2014

NOTE:  "FAIR" INDICATES FEW OR NO CLOUDS BELOW 12,000 FEET
WITH NO SIGNIFICANT WEATHER AND/OR OBSTRUCTIONS TO VISIBILITY.

WYZ001-180700-
YELLOWSTONE NATIONAL PARK

CITY           SKY/WX    TMP DP  RH WIND       PRES   REMARKS
LK YELLOWSTONE   N/A     42  37  82 CALM      30.20S
6HR MIN TEMP:  42; 6HR MAX TEMP:  67;

W YELLOWSTONE  NOT AVBL

$$
WYZ002>013-054>058-071-098>099-180700-
NORTHERN WYOMING

CITY           SKY/WX    TMP DP  RH WIND       PRES   REMARKS
JACKSON        CLEAR     50  41  71 N7        30.10S
CODY             N/A    N/A N/A N/A MISG        N/A
GREYBULL       PTCLDY    61  49  64 NW7       29.93S
6HR MIN TEMP:  61; 6HR MAX TEMP:  84; 6HR PCP: TRACE;

WORLAND        CLEAR     58  48  69 SW8       29.95F
6HR MIN TEMP:  57; 6HR MAX TEMP:  80;

SHERIDAN       CLEAR     60  47  61 SW8       29.92F
6HR MIN TEMP:  54; 6HR MAX TEMP:  82; 6HR PCP: TRACE;

BUFFALO        PTCLDY    62  42  47 W8        30.00F
6HR MIN TEMP:  61; 6HR MAX TEMP:  77; 6HR PCP:  0.02;

GILLETTE       CLOUDY    63  47  55 S12       29.96F
6HR MIN TEMP:  55; 6HR MAX TEMP:  80;

HULETT         FAIR      61  48  63 MISG      29.97
NEWCASTLE      NOT AVBL

$$
WYZ014>020-022>026-101>103-180700-
CENTRAL WYOMING

CITY           SKY/WX    TMP DP  RH WIND       PRES   REMARKS
BIG PINEY      CLEAR     46  41  82 CALM      30.17S
6HR MIN TEMP:  46; 6HR MAX TEMP:  72; 6HR PCP: TRACE;

PINEDALE       CLEAR     45  36  70 CALM      30.18F
DUBOIS         FAIR      50  37  62 NW9       30.17S
LANDER         CLEAR     65  37  35 SW13      30.04S
6HR MIN TEMP:  63; 6HR MAX TEMP:  79;

RIVERTON       CLEAR     57  39  51 N6        30.05S
6HR MIN TEMP:  57; 6HR MAX TEMP:  82; 6HR PCP: TRACE;

CASPER         MOCLDY    55  38  52 W8        30.04F
6HR MIN TEMP:  55; 6HR MAX TEMP:  81;

DOUGLAS        CLEAR     52  42  69 CALM      30.02F
6HR MIN TEMP:  52; 6HR MAX TEMP:  81;


$$
WYZ021-027>030-104>119-180700-
SOUTHERN WYOMING

CITY           SKY/WX    TMP DP  RH WIND       PRES   REMARKS
EVANSTON       PTCLDY    63  38  39 S6        30.15S
6HR MIN TEMP:  61; 6HR MAX TEMP:  77;

KEMMERER       CLEAR     55  36  47 N5        30.17S
FORT BRIDGER   FAIR      61  37  40 SW7       30.17S
ROCK SPRINGS   CLEAR     61  35  37 CALM      30.14S
6HR MIN TEMP:  61; 6HR MAX TEMP:  80;

DIXON          FAIR      56  41  57 E3        30.17F
RAWLINS        CLEAR     54  37  52 E5        30.15S
6HR MIN TEMP:  54; 6HR MAX TEMP:  77;

SARATOGA       FAIR      55  41  58 S12       30.19S
LARAMIE        CLEAR     49  38  65 SW3       30.20S
6HR MIN TEMP:  47; 6HR MAX TEMP:  71;

CHEYENNE       CLEAR     56  41  57 W7        30.12S
6HR MIN TEMP:  54; 6HR MAX TEMP:  76;

TORRINGTON     CLEAR     55  47  74 CALM      29.97S
6HR MIN TEMP:  55; 6HR MAX TEMP:  83;

PINE BLUFFS    FAIR      50  43  76 W5        30.06F

$$



USA.gov is the U.S. government's official web portal to all federal, state and local government web resources and services.